Location: Shannon
(40.5500°S, 175.4167°E)
Time: 22:18:15
(UTC+00:00)

Meteor 1-15 Rocket - Pass Details

Date: 17 November 2025
Orbit: 838 x 906 km, 81.2° (Epoch: 06 December)

Event Time Altitude Azimuth Distance (km) Brightness Sun altitude
Exits shadow 15:12:20 23° 329° (NNW) 1,804 5.3 -15.9°
Maximum altitude 15:15:57 58° 257° (WSW) 1,051 4.5 -15.4°
Drops below altitude 10° 15:21:50 10° 178° (S) 2,616 7.4 -14.6°
Sets 15:24:24 0° 174° (S) 3,568 8.2 -14.2°
